Regional Weather Roundup
Issued by NWS

Home | Current Version | Previous Version | Graphics & Text | Print | Product List | Glossary On
Versions: 1 2 3 4 5 6 7 8 9 10 11 12 13 14 15 16 17 18 19 20 21 22 23 24 25 26 27 28 29 30 31 32 33 34 35 36 37 38 39 40 41 42 43 44 45 46 47 48 49 50
000
ASUS43 KIND 252209
RWRIN

WEATHER ROUNDUP FOR INDIANA
NATIONAL WEATHER SERVICE INDIANAPOLIS IN
500 PM EST SUN FEB 25 2018

NOTE: "FAIR" INDICATES FEW OR NO CLOUDS BELOW 12,000 FEET WITH NO
SIGNIFICANT WEATHER AND/OR OBSTRUCTIONS TO VISIBILITY.

* - STATION DOES NOT REPORT WEATHER SUCH AS PRECIPITATION OR FOG.

+ - STATION NOT QUALITY CONTROLLED BY THE NATIONAL WEATHER SERVICE.
    USE DATA WITH CAUTION...ESPECIALLY DEWPOINT AND RELATIVE
    HUMIDITY OBSERVATIONS.

INZ001>003-010>013-019-020-252300-
NORTHWEST INDIANA

CITY           SKY/WX    TMP DP  RH WIND       PRES   REMARKS
GARY /AIRPORT/ MOSUNNY   46  18  31 W17G35    29.99R
LA PORTE +     FAIR      43  25  48 W17G28    29.99S
MICHIGAN CITY+ FAIR      45  27  49 SW10G17   29.99S
MONTICELLO +   FAIR      44  29  57 W17G25    30.05R
RENSSELAER +   FAIR      43  23  45 W17G24    30.04R
VALPARAISO     FAIR      45  25  45 W22G28    30.00R

$$

LMZ046-743>745-252300-
SOUTHERN LAKE MICHIGAN

STATION/POSITION TIME  TEMP    WIND        PRES    WAVE
                       AIR SEA DIR/SP/G            HT
                 (UTC) (F)     (DEG/KT/KT) (MB)    (FT)
BURNS HARBOR     2140   42     240/ 18/ 25 1016.3R
MICHIGAN CITY    2140   40     230/ 22/ 24   N/A

$$

INZ004-005-014>016-021>024-252300-
NORTH CENTRAL INDIANA

CITY           SKY/WX    TMP DP  RH WIND       PRES   REMARKS
GOSHEN         PTSUNNY   42  28  57 SW16G26   29.99R
LOGANSPORT +   PTSUNNY   41  32  70 W17G24    30.06R
PERU/GRISSOM   FAIR      44  31  60 W20       30.04R
ROCHESTER +    PTSUNNY   45  30  57 SW16G26   30.03R
SOUTH BEND     FAIR      42  24  49 SW20G26   29.99R
WARSAW +       PTSUNNY   41  28  60 E20G25    30.01R

$$

INZ006>009-017-018-025>027-252300-
NORTHEAST INDIANA

CITY           SKY/WX    TMP DP  RH WIND       PRES   REMARKS
AUBURN +       FAIR      41  28  60 W15G24    30.02R
FORT WAYNE     PTSUNNY   43  31  62 SW17      30.02R
HUNTINGTON +   FAIR      42  28  58 W14G23    30.03R
KENDALLVILLE + PTSUNNY   40  29  64 W21G30    29.99R WCI  30

$$

INZ028-029-035-036-043>045-051>053-252300-
WEST CENTRAL INDIANA

CITY           SKY/WX    TMP DP  RH WIND       PRES   REMARKS
CRAWFORDSVL +  FAIR      44  31  60 SW12G17     N/A
GREENCASTLE +  FAIR      46  30  53 SW3       30.07S
LAFAYETTE      FAIR      45  29  53 W15G21    30.06R
TERRE HAUTE    FAIR      48  32  53 SW14      30.08S

$$

INZ030>032-037>040-046>048-054>057-064-065-252300-
CENTRAL INDIANA

CITY           SKY/WX    TMP DP  RH WIND       PRES   REMARKS
COLUMBUS       SUNNY     50 N/A N/A SW10      30.06F
FRANKFORT +    FAIR      47  33  58 W18G24    30.06F
GREENWOOD *+   FAIR      46 -44   2 W10       30.05F
INDIANAPOLIS   PTSUNNY   48  30  49 W16       30.06R
-EAGLE CREEK   FAIR      48  30  49 W10       30.04F
KOKOMO +       FAIR      44  31  60 W17       30.05R
MARION +       FAIR      43  33  67 W17G28    30.05R
MT COMFORT *+  FAIR      46  36  66 SW12G20   30.05F
SHELBYVILLE    FAIR      49  31  49 W14       30.04F
ZIONSVILLE +   FAIR      44  33  64 W14G22    30.05F

$$

INZ033-034-041-042-049-050-058-059-252300-
EAST CENTRAL INDIANA

CITY           SKY/WX    TMP DP  RH WIND       PRES   REMARKS
MUNCIE         FAIR      48  33  56 W16       30.03R
RICHMOND +     FAIR      45  34  65 W16       30.04S

$$

INZ060-061-067>069-081>083-085>088-252300-
SOUTHWEST INDIANA

CITY           SKY/WX    TMP DP  RH WIND       PRES   REMARKS
EVANSVILLE     FAIR      49  32  52 W10       30.13R
HUNTINGBURG +  FAIR      49  31  49 W8        30.11R
WASHINGTON +   FAIR      48  30  50 W7        30.08S

$$

INZ062-063-066-070>080-084-089>092-252300-
SOUTH CENTRAL AND SOUTHEAST INDIANA

CITY           SKY/WX    TMP DP  RH WIND       PRES   REMARKS
BATESVILLE +   SUNNY     46  32  57 MISG      30.05F
BEDFORD +      FAIR      48  28  46 W7        30.07S
BLOOMINGTON    FAIR      47  30  51 W8        30.06F
FRENCH LICK *+ FAIR      46  25  42 W7        30.08S
MADISON *+     FAIR      46  32  57 SW8       30.10R
NORTH VERNON + FAIR      46  34  61 SW7       30.07F
SEYMOUR +      FAIR      52  34  50 SW8       30.07S

$$





USA.gov is the U.S. government's official web portal to all federal, state and local government web resources and services.